Orbital Elements at Epoch 2459000.5 (2020-May-31.0) TDB
Reference: JPL 5 (heliocentric ecliptic J2000)
Element | Value | Uncertainty (1-sigma) | Units |
e | .4746765536583313 | 0.00062946 | |
a | 1.765275710101361 | 0.001999 | au |
q | .9273407197736834 | 6.106e-05 | au |
i | 7.167622741764744 | 0.0079799 | deg |
node | 271.7634214075979 | 0.00056577 | deg |
peri | 221.4179465693905 | 0.0016102 | deg |
M | 100.4349036170674 | 1.3977 | deg |
tp | 2458761.499168779830 (2019-Oct-04.99916878) | 2.92 | TDB |
period | 856.6772719503065 2.35 | 1.4552 0.003984 | d yr |
n | .4202282607316359 | 0.00071381 | deg/d |
Q | 2.603210700429038 | 0.0029479 | au |
|
| | Orbit Determination Parameters
Additional Information
|